• In Russia
  • List of Countries
  • For 7 days
  • Water Temperature
  • Satellite Maps
  • Weather Map
  • Weather Widgets
  • user-avatar
    Login

    Hourly Weather Budakeszi

    Today, 25 June, Monday

    Time Temperature Precipitation Wind Pressure Humidity
    00:00 +13°C° 0 mm 2 mps 736 mmHg 77%
    01:00 +12°C° 0 mm 2 mps 735 mmHg 79%
    02:00 +12°C° 0 mm 2 mps 735 mmHg 81%
    03:00 +12°C° 0 mm 2 mps 735 mmHg 82%
    04:00 +10°C° 0 mm 2 mps 735 mmHg 84%
    05:00 +13°C° 0 mm 2 mps 736 mmHg 80%
    06:00 +13°C° 0 mm 3 mps 736 mmHg 76%
    07:00 +16°C° 0 mm 2 mps 736 mmHg 70%
    08:00 +17°C° 0 mm 2 mps 737 mmHg 64%
    09:00 +18°C° 0 mm 2 mps 737 mmHg 59%
    10:00 +20°C° 0 mm 3 mps 737 mmHg 53%
    11:00 +20°C° 0 mm 3 mps 737 mmHg 51%
    12:00 +21°C° 0 mm 3 mps 737 mmHg 49%
    13:00 +21°C° 0 mm 2 mps 737 mmHg 48%
    14:00 +21°C° 0.1 mm 2 mps 737 mmHg 49%
    15:00 +21°C° 0.1 mm 3 mps 737 mmHg 51%
    16:00 +21°C° 0.1 mm 3 mps 737 mmHg 53%
    17:00 +20°C° 0 mm 3 mps 737 mmHg 58%
    18:00 +19°C° 0 mm 2 mps 737 mmHg 63%
    19:00 +18°C° 0 mm 2 mps 737 mmHg 68%
    20:00 +17°C° 0 mm 2 mps 737 mmHg 71%
    21:00 +16°C° 0 mm 2 mps 737 mmHg 74%
    22:00 +14°C° 0 mm 2 mps 737 mmHg 77%
    23:00 +14°C° 0 mm 2 mps 737 mmHg 78%

    Tomorrow, 26 June, Tuesday

    Time Temperature Precipitation Wind Pressure Humidity
    00:00 +14°C° 0 mm 2 mps 737 mmHg 79%
    01:00 +13°C° 0 mm 2 mps 737 mmHg 81%
    02:00 +13°C° 0 mm 2 mps 737 mmHg 83%
    03:00 +12°C° 0 mm 2 mps 737 mmHg 85%
    04:00 +12°C° 0 mm 2 mps 737 mmHg 86%
    05:00 +13°C° 0 mm 2 mps 737 mmHg 81%
    06:00 +15°C° 0 mm 2 mps 737 mmHg 75%
    07:00 +16°C° 0 mm 2 mps 737 mmHg 70%
    08:00 +18°C° 0 mm 2 mps 737 mmHg 64%
    09:00 +20°C° 0 mm 2 mps 737 mmHg 58%
    10:00 +21°C° 0 mm 2 mps 737 mmHg 52%
    11:00 +23°C° 0.1 mm 2 mps 737 mmHg 49%
    12:00 +24°C° 0.1 mm 2 mps 737 mmHg 46%
    13:00 +25°C° 0.1 mm 2 mps 736 mmHg 43%
    14:00 +24°C° 0.3 mm 2 mps 736 mmHg 47%
    15:00 +24°C° 0.3 mm 2 mps 736 mmHg 50%
    16:00 +22°C° 0.3 mm 3 mps 735 mmHg 54%
    17:00 +21°C° 0.1 mm 3 mps 735 mmHg 59%
    18:00 +20°C° 0.1 mm 2 mps 735 mmHg 64%
    19:00 +19°C° 0.1 mm 2 mps 735 mmHg 69%
    20:00 +18°C° 0 mm 2 mps 735 mmHg 72%
    21:00 +16°C° 0 mm 2 mps 735 mmHg 76%
    22:00 +15°C° 0 mm 2 mps 735 mmHg 79%
    23:00 +15°C° 0.1 mm 2 mps 735 mmHg 81%

    Day after tomorrow, 27 June, Wednesday

    Time Temperature Precipitation Wind Pressure Humidity
    00:00 +14°C° 0.1 mm 2 mps 735 mmHg 83%
    01:00 +14°C° 0.1 mm 2 mps 735 mmHg 85%
    02:00 +13°C° 0 mm 2 mps 735 mmHg 85%
    03:00 +13°C° 0 mm 2 mps 734 mmHg 85%
    04:00 +13°C° 0 mm 2 mps 734 mmHg 85%
    05:00 +14°C° 0.1 mm 2 mps 734 mmHg 81%
    06:00 +14°C° 0.1 mm 3 mps 735 mmHg 77%
    07:00 +16°C° 0.1 mm 3 mps 735 mmHg 73%
    08:00 +17°C° 0.1 mm 3 mps 735 mmHg 71%
    09:00 +18°C° 0.1 mm 3 mps 735 mmHg 70%
    10:00 +19°C° 0.1 mm 4 mps 735 mmHg 68%
    11:00 +18°C° 0.2 mm 4 mps 734 mmHg 70%
    12:00 +18°C° 0.2 mm 4 mps 734 mmHg 73%
    13:00 +18°C° 0.2 mm 4 mps 734 mmHg 75%
    14:00 +19°C° 0.3 mm 4 mps 733 mmHg 74%
    15:00 +19°C° 0.3 mm 4 mps 733 mmHg 73%
    16:00 +20°C° 0.3 mm 4 mps 733 mmHg 73%
    17:00 +19°C° 0.2 mm 4 mps 733 mmHg 74%
    18:00 +19°C° 0.2 mm 4 mps 732 mmHg 76%
    19:00 +19°C° 0.2 mm 5 mps 732 mmHg 77%
    20:00 +17°C° 1.4 mm 5 mps 732 mmHg 81%
    21:00 +17°C° 1.4 mm 5 mps 731 mmHg 84%
    22:00 +16°C° 1.4 mm 5 mps 731 mmHg 88%
    23:00 +16°C° 1.8 mm 5 mps 730 mmHg 88%

    28 June, Thursday

    Time Temperature Precipitation Wind Pressure Humidity
    00:00 +16°C° 1.8 mm 5 mps 730 mmHg 89%
    01:00 +16°C° 1.8 mm 5 mps 729 mmHg 89%
    02:00 +16°C° 0.3 mm 5 mps 729 mmHg 91%
    03:00 +17°C° 0.3 mm 4 mps 729 mmHg 92%
    04:00 +18°C° 0.3 mm 4 mps 728 mmHg 94%
    05:00 +18°C° 0.1 mm 4 mps 729 mmHg 92%
    06:00 +18°C° 0.1 mm 4 mps 729 mmHg 91%
    07:00 +19°C° 0.1 mm 4 mps 729 mmHg 89%
    08:00 +20°C° 0.2 mm 4 mps 729 mmHg 84%
    09:00 +21°C° 0.2 mm 4 mps 729 mmHg 80%
    10:00 +22°C° 0.2 mm 3 mps 730 mmHg 75%
    11:00 +24°C° 0.4 mm 3 mps 730 mmHg 70%
    12:00 +25°C° 0.4 mm 3 mps 730 mmHg 66%
    13:00 +26°C° 0.4 mm 2 mps 730 mmHg 61%
    14:00 +26°C° 0.5 mm 3 mps 730 mmHg 64%
    15:00 +26°C° 0.5 mm 3 mps 730 mmHg 66%
    16:00 +26°C° 0.5 mm 4 mps 730 mmHg 69%
    17:00 +25°C° 1.1 mm 3 mps 730 mmHg 74%
    18:00 +22°C° 1.1 mm 3 mps 729 mmHg 79%
    19:00 +21°C° 1.1 mm 3 mps 729 mmHg 84%
    20:00 +21°C° 0.7 mm 3 mps 729 mmHg 85%
    21:00 +20°C° 0.7 mm 3 mps 729 mmHg 87%
    22:00 +20°C° 0.7 mm 3 mps 729 mmHg 88%
    23:00 +19°C° 0.4 mm 3 mps 729 mmHg 89%

    29 June, Friday

    Time Temperature Precipitation Wind Pressure Humidity
    00:00 +19°C° 0.4 mm 3 mps 729 mmHg 90%
    01:00 +18°C° 0.4 mm 3 mps 729 mmHg 91%
    02:00 +18°C° 0.2 mm 3 mps 728 mmHg 91%
    03:00 +18°C° 0.2 mm 3 mps 728 mmHg 91%
    04:00 +18°C° 0.2 mm 3 mps 728 mmHg 91%
    05:00 +19°C° 0 mm 3 mps 728 mmHg 88%
    06:00 +20°C° 0 mm 3 mps 728 mmHg 85%
    07:00 +21°C° 0 mm 4 mps 728 mmHg 82%
    08:00 +23°C° 0.1 mm 4 mps 728 mmHg 76%
    09:00 +25°C° 0.1 mm 4 mps 729 mmHg 70%
    10:00 +27°C° 0.1 mm 4 mps 729 mmHg 64%
    11:00 +28°C° 0.7 mm 4 mps 729 mmHg 62%
    12:00 +28°C° 0.7 mm 4 mps 728 mmHg 61%
    13:00 +29°C° 0.7 mm 4 mps 728 mmHg 59%
    14:00 +29°C° 1 mm 4 mps 728 mmHg 60%
    15:00 +29°C° 1 mm 4 mps 728 mmHg 61%
    16:00 +29°C° 1 mm 4 mps 728 mmHg 62%
    17:00 +27°C° 1.4 mm 3 mps 728 mmHg 67%
    18:00 +26°C° 1.4 mm 3 mps 728 mmHg 72%
    19:00 +25°C° 1.4 mm 3 mps 728 mmHg 76%
    20:00 +24°C° 0.5 mm 3 mps 728 mmHg 78%
    21:00 +22°C° 0.5 mm 3 mps 728 mmHg 80%
    22:00 +21°C° 0.5 mm 3 mps 728 mmHg 82%
    23:00 +20°C° 0 mm 3 mps 729 mmHg 84%

    30 June, Saturday

    Time Temperature Precipitation Wind Pressure Humidity
    00:00 +20°C° 0 mm 3 mps 729 mmHg 85%
    01:00 +19°C° 0 mm 3 mps 729 mmHg 86%
    02:00 +19°C° 0 mm 3 mps 729 mmHg 87%
    03:00 +19°C° 0 mm 3 mps 730 mmHg 87%
    04:00 +18°C° 0 mm 3 mps 730 mmHg 88%
    05:00 +19°C° 0 mm 3 mps 730 mmHg 84%
    06:00 +21°C° 0 mm 3 mps 731 mmHg 81%
    07:00 +22°C° 0 mm 4 mps 731 mmHg 77%
    08:00 +23°C° 0 mm 4 mps 732 mmHg 71%
    09:00 +25°C° 0 mm 4 mps 732 mmHg 65%
    10:00 +26°C° 0 mm 4 mps 733 mmHg 59%
    11:00 +27°C° 0 mm 4 mps 733 mmHg 56%
    12:00 +28°C° 0 mm 4 mps 733 mmHg 53%
    13:00 +28°C° 0 mm 4 mps 733 mmHg 50%
    14:00 +28°C° 0 mm 4 mps 733 mmHg 51%
    15:00 +27°C° 0 mm 4 mps 733 mmHg 51%
    16:00 +26°C° 0 mm 4 mps 733 mmHg 52%
    17:00 +25°C° 0 mm 3 mps 733 mmHg 54%
    18:00 +24°C° 0 mm 3 mps 734 mmHg 56%
    19:00 +21°C° 0 mm 3 mps 734 mmHg 58%
    20:00 +20°C° 0 mm 3 mps 735 mmHg 59%
    21:00 +19°C° 0 mm 3 mps 735 mmHg 59%
    22:00 +18°C° 0 mm 3 mps 735 mmHg 60%
    23:00 +17°C° 0 mm 2 mps 736 mmHg 62%
    Show more